NOAA 16 DEB

Satellite information

Favourite Embed

Satellite Type and Status

DEBRISIN ORBIT

Key statistics

Satellite NOAA 16 DEB at a glance.

Uptime

9165

Days in orbit

Revolutions

≈ 14.5

Per day

Orbit

SSO

Sun Synchronous Orbit

Inclination

98.8

Latest

Satellite identification and parameters

Extended collection of information and parameters for NOAA 16 DEB.

Object identification

Identified? True

Debris? True

Object name: NOAA 16 DEB

International designator: 2000-055PC

Object number (NORAD): 41663

Object ID (CCSDS): 41663

Country: UNITED STATES OF AMERICA (US)

Current information (Y/N): Y

RCS size: SMALL

Orbital parameters

Period: 99.253 minutes

Inclination: 98.828 deg

SMA: 7101.074 km

Apoapsis: 732.492 km

Periapsis: 713.386 km

RAAN: 67.42 deg

Eccentricy: 0.0013453

Argument of periapsis: 123.4802 deg

Mean anomaly: 236.7679 deg

Mean motion: 14.50830473 rev/day

Mean motion (dot): 0.00018011 rev/day2

B* drag term: 0.0045653767 1/REarth

Two-line elements (TLE)

Creation date: Oct. 24, 2025, 6:33 p.m.

Reference frame: TEME

Reference center: EARTH

Epoch: Oct. 24, 2025, 2:29 a.m. UTC

TLE line 0: 0 NOAA 16 DEB

TLE line 1: 1 41663U 00055PC 25297.10390363 .00018011 00000-0 45654-2 0 9997

TLE line 2: 2 41663 98.8280 67.4200 0013453 123.4802 236.7679 14.50830473494341

Live tracking on map

Real-time ground track for satellite NOAA 16 DEB.

In-orbit conjunctions

A list of the most updated potential collisions computed for object NOAA 16 DEB.

Target Orbit TCA Probability of collision Miss distance Type
COSMOS 2251 DEB LEO 2025-09-04 21:18:38 0.0002826793 82.0 (m) DEBRIS
FENGYUN 1C DEB SSO 2024-11-11 06:58:35 0.0001537932 632.0 (m) DEBRIS
SL-8 R/B LEO 2024-09-15 08:34:36 0.0002235929 279.0 (m) ROCKET BODY

Associated space launch

The NOAA K, L and M POES satellites begin the fifth generation of improved environmental monitoring in support of NOAA missions. The instrument payload has significant improvements and additions/deletions. The instrument changes have effected the spacecraft subsystems and data formats.

NOAA 16 DEB was lifted into orbit during the mission ‘Titan II SLV | NOAA 16’, on board a Titan II SLV space rocket.

The launch took place on Sept. 21, 2000, 10:22 a.m. from Space Launch Complex 4W.

For more information about the launch, click the button.

Launch to space Titan II SLV | NOAA 16
Titan II SLV | NOAA 16

Agency: N/A

Status: Launch Successful

Launch date: Sept. 21, 2000, 10:22 a.m. UTC

Rocket: Titan II SLV

Launch pad: Space Launch Complex 4W

Location: Vandenberg SFB, CA, USA

...

Latest news about this satellite

There are no fresh news available about this satellite. Check back as we update our databases every day.


Newsletter sign-up

Weekly statistics, charts and insights to help you stay on top of the space industry.